STARLINK-36602

Last updated on Sun Mar 15 2026 00:02:07 GMT+0000 (Coordinated Universal Time)

1 67849U 26033AE 26073.58335648 -.01940420 00000+0 -23539-1 0 9992 2 67849 42.9987 241.6433 0001428 278.0300 196.1638 15.63022067 5453

Satellite not in orbit